Content
SEND FEEDBACK

Daily
Averages
Monthly
Summary
United States of America

UMATAC, GUAM


Home > North America > United States > Guam
Elevation: 190 feet     Latitude: 13 17N     Longitude: 144 40E

WEATHER
 
SELECT A DAY
Number of Records: 341,794;   Date Range: 1/1/95 - 7/23/14
 
SHARE

PRINT THIS DATA

[ ← Previous Day ]
WEATHER ALMANAC - JUNE 18, 2014
[ Next Day → ]
[ °C ]   °F
Weather ElementAverageHighLow
Temperature82.5 °F86 °F (9:58 am)76.1 °F (1:58 am)
Dewpoint75.3 °F77 °F (10:30 am)73.2 °F (12:58 pm)
Humidity79.3 %96 % (4:58 am)70 % (9:58 am)
Barometer29.82 in29.88 in (7:53 am)29.75 in (3:58 pm)
Wind Speed6.4 mph10.4 mph (10:52 am)
Weather ElementAverage
Visibility10 mi
Wind DirectionE (93.2 °)

Weather ElementTotal
Precipitation---
Cooling Degree Days16.1 (Base 65)
Growing Degree Days31.1 (Base 50)
Averaged from 88 records on June 18, 2014
WEATHER CONDITIONS BREAKOUT
WIND DIRECTION BREAKOUT
WEATHER BY HOUR - JUNE 18, 2014
[ °C ]   °F
Local TimeTemperatureDewpointHumidityBarometerVisibilityWind DirectionWind SpeedGust SpeedPrecipitationEventsConditions
1:58 AM76.1 °F74.7 °F95 %29.82 in10.0 miWest (270°)3.5 mphClear
1:58 AM76.1 °F74.7 °F95 %29.82 in10.0 miWest (270°)3.5 mphClear
2:58 AM76.3 °F74.8 °F95 %29.82 in10.0 miNW (310°)1.2 mphClear
2:58 AM76.3 °F74.8 °F95 %29.82 in10.0 miNW (310°)1.2 mphClear
3:58 AM76.3 °F74.5 °F94 %29.82 in10.0 miWNW (300°)1.2 mphClear
3:58 AM76.3 °F74.5 °F94 %29.82 in10.0 miWNW (300°)1.2 mphClear
4:58 AM76.1 °F74.8 °F96 %29.82 in10.0 miWest (270°)3.5 mphClear
4:58 AM76.1 °F74.8 °F96 %29.82 in10.0 miWest (270°)3.5 mphClear
5:58 AM76.5 °F75.0 °F95 %29.82 in10.0 miCalmClear
5:58 AM76.5 °F75.0 °F95 %29.82 in10.0 miCalmClear
6:58 AM79.3 °F76.1 °F90 %29.84 in10.0 miCalmClear
6:58 AM79.3 °F76.1 °F90 %29.84 in10.0 miCalmClear
7:53 AM80.6 °F75.2 °F84 %29.88 in10.0 miENE (60°)5.8 mphMostly Cloudy
7:53 AM80.6 °F75.2 °F84 %29.88 in10.0 miENE (60°)5.8 mphMostly Cloudy
7:58 AM81.0 °F75.4 °F83 %29.86 in10.0 miEast (80°)6.9 mphScattered Clouds
7:58 AM81.0 °F75.4 °F83 %29.86 in10.0 miEast (80°)6.9 mphScattered Clouds
8:58 AM83.7 °F75.2 °F76 %29.86 in10.0 miENE (70°)5.8 mphPartly Cloudy
8:58 AM83.7 °F75.2 °F76 %29.86 in10.0 miENE (70°)5.8 mphPartly Cloudy
9:58 AM86.0 °F75.0 °F70 %29.86 in10.0 miEast (100°)6.9 mphPartly Cloudy
9:58 AM86.0 °F75.0 °F70 %29.86 in10.0 miEast (100°)6.9 mphPartly Cloudy
10:30 AM86.0 °F77.0 °F74 %29.87 in10.0 miEast (100°)6.9 mphMostly Cloudy
10:30 AM86.0 °F77.0 °F74 %29.87 in10.0 miEast (100°)6.9 mphMostly Cloudy
10:47 AM84.2 °F77.0 °F79 %29.86 in10.0 miEast (90°)9.2 mphScattered Clouds
10:47 AM84.2 °F77.0 °F79 %29.86 in10.0 miEast (90°)9.2 mphScattered Clouds
10:52 AM84.2 °F77.0 °F79 %29.86 in10.0 miEast (90°)10.4 mphMostly Cloudy
10:52 AM84.2 °F77.0 °F79 %29.86 in10.0 miEast (90°)10.4 mphMostly Cloudy
10:58 AM84.6 °F76.1 °F76 %29.83 in10.0 miEast (90°)9.2 mphMostly Cloudy
10:58 AM84.6 °F76.1 °F76 %29.83 in10.0 miEast (90°)9.2 mphMostly Cloudy
11:03 AM84.2 °F75.2 °F74 %29.86 in10.0 miESE (110°)8.1 mphScattered Clouds
11:03 AM84.2 °F75.2 °F74 %29.86 in10.0 miESE (110°)8.1 mphScattered Clouds
11:13 AM82.4 °F75.2 °F79 %29.85 in10.0 miEast (90°)9.2 mphMostly Cloudy
11:13 AM82.4 °F75.2 °F79 %29.85 in10.0 miEast (90°)9.2 mphMostly Cloudy
11:23 AM82.4 °F77.0 °F84 %29.85 in10.0 miEast (90°)8.1 mphMostly Cloudy
11:23 AM82.4 °F77.0 °F84 %29.85 in10.0 miEast (90°)8.1 mphMostly Cloudy
11:43 AM84.2 °F75.2 °F74 %29.84 in10.0 miEast (80°)9.2 mphScattered Clouds
11:43 AM84.2 °F75.2 °F74 %29.84 in10.0 miEast (80°)9.2 mphScattered Clouds
11:58 AM84.2 °F74.1 °F72 %29.81 in10.0 miENE (70°)10.4 mphScattered Clouds
11:58 AM84.2 °F74.1 °F72 %29.81 in10.0 miENE (70°)10.4 mphScattered Clouds
12:13 PM84.2 °F75.2 °F74 %29.83 in10.0 miEast (80°)8.1 mphMostly Cloudy
12:13 PM84.2 °F75.2 °F74 %29.83 in10.0 miEast (80°)8.1 mphMostly Cloudy
12:23 PM84.2 °F75.2 °F74 %29.83 in10.0 miESE (120°)6.9 mphMostly Cloudy
12:23 PM84.2 °F75.2 °F74 %29.83 in10.0 miESE (120°)6.9 mphMostly Cloudy
12:39 PM82.4 °F73.4 °F74 %29.83 in10.0 miEast (80°)8.1 mphMostly Cloudy
12:39 PM82.4 °F73.4 °F74 %29.83 in10.0 miEast (80°)8.1 mphMostly Cloudy
12:44 PM82.4 °F73.4 °F74 %29.83 in10.0 miEast (90°)8.1 mphScattered Clouds
12:44 PM82.4 °F73.4 °F74 %29.83 in10.0 miEast (90°)8.1 mphScattered Clouds
12:58 PM82.8 °F73.2 °F73 %29.79 in10.0 miEast (100°)8.1 mphMostly Cloudy
12:58 PM82.8 °F73.2 °F73 %29.79 in10.0 miEast (100°)8.1 mphMostly Cloudy
1:58 PM86.0 °F75.2 °F70 %29.77 in10.0 miEast (100°)8.1 mphScattered Clouds
1:58 PM86.0 °F75.2 °F70 %29.77 in10.0 miEast (100°)8.1 mphScattered Clouds
2:58 PM84.0 °F75.2 °F75 %29.76 in10.0 miENE (70°)6.9 mphMostly Cloudy
2:58 PM84.0 °F75.2 °F75 %29.76 in10.0 miENE (70°)6.9 mphMostly Cloudy
3:03 PM84.2 °F75.2 °F74 %29.79 in10.0 miENE (70°)6.9 mphScattered Clouds
3:03 PM84.2 °F75.2 °F74 %29.79 in10.0 miENE (70°)6.9 mphScattered Clouds
3:08 PM86.0 °F75.2 °F70 %29.79 in10.0 miENE (60°)5.8 mphMostly Cloudy
3:08 PM86.0 °F75.2 °F70 %29.79 in10.0 miENE (60°)5.8 mphMostly Cloudy
3:18 PM84.2 °F75.2 °F74 %29.79 in10.0 miENE (60°)6.9 mphMostly Cloudy
3:18 PM84.2 °F75.2 °F74 %29.79 in10.0 miENE (60°)6.9 mphMostly Cloudy
3:28 PM84.2 °F75.2 °F74 %29.78 in10.0 miENE (70°)6.9 mphScattered Clouds
3:28 PM84.2 °F75.2 °F74 %29.78 in10.0 miENE (70°)6.9 mphScattered Clouds
3:58 PM83.5 °F75.2 °F76 %29.75 in10.0 miEast (90°)5.8 mphClear
3:58 PM83.5 °F75.2 °F76 %29.75 in10.0 miEast (90°)5.8 mphClear
4:13 PM82.4 °F75.2 °F79 %29.78 in10.0 miENE (70°)8.1 mphRainLight Rain
4:13 PM82.4 °F75.2 °F79 %29.78 in10.0 miENE (70°)8.1 mphRainLight Rain
4:22 PM84.2 °F75.2 °F74 %29.78 in10.0 miEast (80°)8.1 mphScattered Clouds
4:22 PM84.2 °F75.2 °F74 %29.78 in10.0 miEast (80°)8.1 mphScattered Clouds
4:27 PM84.2 °F75.2 °F74 %29.78 in10.0 miENE (70°)8.1 mphMostly Cloudy
4:27 PM84.2 °F75.2 °F74 %29.78 in10.0 miENE (70°)8.1 mphMostly Cloudy
4:33 PM84.2 °F73.4 °F70 %29.78 in10.0 miENE (70°)6.9 mphScattered Clouds
4:33 PM84.2 °F73.4 °F70 %29.78 in10.0 miENE (70°)6.9 mphScattered Clouds
4:58 PM83.7 °F74.3 °F73 %29.75 in10.0 miEast (80°)5.8 mph0.00 inScattered Clouds
4:58 PM83.7 °F74.3 °F73 %29.75 in10.0 miEast (80°)5.8 mph0.00 inScattered Clouds
5:58 PM84.6 °F75.6 °F74 %29.76 in10.0 miENE (60°)5.8 mphPartly Cloudy
5:58 PM84.6 °F75.6 °F74 %29.76 in10.0 miENE (60°)5.8 mphPartly Cloudy
6:58 PM82.6 °F76.1 °F81 %29.78 in10.0 miENE (60°)6.9 mphPartly Cloudy
6:58 PM82.6 °F76.1 °F81 %29.78 in10.0 miENE (60°)6.9 mphPartly Cloudy
7:58 PM81.0 °F75.9 °F85 %29.81 in10.0 miENE (60°)6.9 mphClear
7:58 PM81.0 °F75.9 °F85 %29.81 in10.0 miENE (60°)6.9 mphClear
8:58 PM81.5 °F75.9 °F83 %29.81 in10.0 miNE (50°)4.6 mphClear
8:58 PM81.5 °F75.9 °F83 %29.81 in10.0 miNE (50°)4.6 mphClear
9:58 PM81.1 °F76.8 °F87 %29.82 in10.0 miEast (80°)2.3 mphScattered Clouds
9:58 PM81.1 °F76.8 °F87 %29.82 in10.0 miEast (80°)2.3 mphScattered Clouds
10:58 PM82.0 °F76.5 °F83 %29.82 in10.0 miNE (50°)5.8 mphClear
10:58 PM82.0 °F76.5 °F83 %29.82 in10.0 miNE (50°)5.8 mphClear
11:51 PM80.6 °F77.0 °F89 %29.84 in10.0 miNE (50°)6.9 mphLight Drizzle
11:51 PM80.6 °F77.0 °F89 %29.84 in10.0 miNE (50°)6.9 mphLight Drizzle
11:58 PM80.8 °F76.5 °F87 %29.81 in10.0 miENE (60°)3.5 mph0.00 inLight Drizzle
11:58 PM80.8 °F76.5 °F87 %29.81 in10.0 miENE (60°)3.5 mph0.00 inLight Drizzle
Hourly data recorded from PGUA, located miles away from Umatac, Guam







STORIES FROM OUR PARTNERS